Location: Bishopstone
(51.0167°N, 1.9000°W)
Time: 09:36:59
(UTC+00:00)

Cosmos 1939 Rocket - Pass Details

Date: 16 September 2019
Orbit: 534 x 583 km, 97.4° (Epoch: 17 October)

Event Time Altitude Azimuth Distance (km) Brightness Sun altitude
Rises 18:45:26 0° 160° (SSE) 2,683 6.0 -4.7°
Reaches altitude 10° 18:47:32 10° 159° (SSE) 1,792 5.1 -5.1°
Maximum altitude 18:51:23 74° 75° (ENE) 562 2.7 -5.7°
Drops below altitude 10° 18:55:16 10° 350° (N) 1,802 5.8 -6.3°
Sets 18:57:24 0° 349° (NNW) 2,699 6.7 -6.6°
